Regional Weather Roundup
Issued by NWS Memphis, TN

Home | Current Version | Previous Version | Text Only | Print | Product List | Glossary On
Versions: 1 2 3 4 5 6 7 8 9 10 11 12 13 14 15 16 17 18 19 20 21 22 23 24 25 26 27 28 29 30 31 32 33 34 35 36 37 38 39 40 41 42 43 44 45 46 47 48 49 50
000
ASUS44 KMEG 010510
RWRMEG
MEMPHIS CWA HOURLY WEATHER ROUNDUP
NATIONAL WEATHER SERVICE MEMPHIS TN
1200 AM CDT WED JUL 01 2015

...WEST TENNESSEE...

CITY           SKY/WX    TMP DP  RH WIND       PRES   REMARKS
MEMPHIS INTL   NOT AVBL
NWS MEMPHIS      N/A     76 N/A N/A MISG        N/A
JACKSON        NOT AVBL
LEXINGTON      CLEAR     73  72  94 S5        29.97S
PARIS          CLEAR     70  66  88 SW3       29.96R


...EASTERN ARKANSAS...

CITY           SKY/WX    TMP DP  RH WIND       PRES   REMARKS
JONESBORO      NOT AVBL
NEWPORT        CLEAR     78  70  76 SW6       29.97F


...NORTH MISSISSIPPI...

CITY           SKY/WX    TMP DP  RH WIND       PRES   REMARKS
TUPELO         CLEAR     74  72  93 SW6       30.02S
OXFORD         CLEAR     73  73 100 SW6       30.03F
OLIVE BRANCH   CLEAR     73 N/A N/A S7        30.00S
TUNICA         CLEAR     73  72  94 S5        30.00S
CLARKSDALE     MOCLDY    79  79 100 S9        30.01S
CORINTH        CLEAR     75  72  88 SW7       30.00S
COLUMBUS       PTCLDY    76  69  80 SW7       30.02F
STARKVILLE     FAIR      70  68  94 CALM      30.03F


...SOUTHEAST MISSOURI...

CITY           SKY/WX    TMP DP  RH WIND       PRES   REMARKS


...NORTHWEST ALABAMA...

CITY           SKY/WX    TMP DP  RH WIND       PRES   REMARKS


...MIDDLE TENNESSEE...

CITY           SKY/WX    TMP DP  RH WIND       PRES   REMARKS
COLUMBIA       CLEAR     73  73 100 SW9       29.98R


...WESTERN KENTUCKY...

CITY           SKY/WX    TMP DP  RH WIND       PRES   REMARKS
FORT CAMPBELL  PTCLDY    72  69  91 SW7       29.93F


...CENTRAL ARKANSAS...

CITY           SKY/WX    TMP DP  RH WIND       PRES   REMARKS


SKY/WX REPORTED AS FAIR MEANS FEW OR NO CLOUDS BELOW
12 THOUSAND FEET.




USA.gov is the U.S. government's official web portal to all federal, state and local government web resources and services.